Date String (YYYY-MM-DD hh:mm:ss) UTC,Instrument flags,absolute air pressure of the measurement (hPa),sample flow rate (lpm),inlet stack bypass flow (lpm),air temperature of the measurement (°C),ambient temperature measured by the external sensor (°C),aerosol sample conditioner tube jacket temperature (°C),OPC LED temperature (°C),internal box temperature (°C),relative humidity of the measurement (%),span deviation,mass concentration of particles derived from Lorenz-Mie calculation of OPC scattering (μg/m³),mass concentration of particles derived from Lorenz-Mie calculation of OPC scattering (μg/m³),mass concentration of particles derived from Lorenz-Mie calculation of OPC scattering (μg/m³)
DateTimeUTC,F1_M11,P_M11,Q1_M11,Q2_M11,T1_M11,T2_M11,T3_M11,T4_M11,T5_M11,U1_M11,ZSPAN_M11,X0_M11,X2_M11,X1_M11
2023-11-05 12:00:00,SystemResetWarning,0828.2,5.00,000.00,027.3,026.3,000.0,035.6,028.8,11.5,0000.0,0003.56,0001.63,0001.38
2023-11-05 12:01:00,SystemResetWarning,0828.2,5.00,000.00,027.3,026.4,000.0,035.6,028.8,11.4,0000.0,0003.23,0001.62,0001.38
2023-11-05 12:02:00,SystemResetWarning,0828.1,5.00,000.00,027.3,026.4,000.0,035.6,028.8,11.5,0000.0,0002.89,0001.63,0001.38
2023-11-05 12:03:00,SystemResetWarning,0828.2,4.99,000.00,027.3,026.4,000.0,035.6,028.8,11.5,0000.0,0002.99,0001.67,0001.39
2023-11-05 12:04:00,SystemResetWarning,0828.2,4.99,000.00,027.3,026.4,000.0,035.6,028.8,11.5,0000.0,0003.13,0001.68,0001.38
2023-11-05 12:05:00,SystemResetWarning,0828.2,5.00,000.00,027.3,026.4,000.0,035.6,028.8,11.5,0000.0,0003.08,0001.63,0001.37
2023-11-05 12:06:00,SystemResetWarning,0828.2,4.99,000.00,027.3,026.4,000.0,035.6,028.8,11.5,0000.0,0003.08,0001.61,0001.37
2023-11-05 12:07:00,SystemResetWarning,0828.2,5.00,000.00,027.3,026.4,000.0,035.6,028.8,11.5,0000.0,0003.20,0001.64,0001.38
2023-11-05 12:08:00,SystemResetWarning,0828.1,5.01,000.00,027.3,026.4,000.0,035.6,028.8,11.5,0000.0,0003.33,0001.67,0001.39
2023-11-05 12:09:00,SystemResetWarning,0828.2,5.00,000.00,027.3,026.4,000.0,035.7,028.8,11.5,0000.0,0003.22,0001.69,0001.39
2023-11-05 12:10:00,SystemResetWarning,0828.1,4.99,000.00,027.3,026.4,000.0,035.7,028.9,11.5,0000.0,0002.58,0001.67,0001.40
2023-11-05 12:11:00,SystemResetWarning,0828.1,4.99,000.00,027.4,026.5,000.0,035.7,028.9,11.5,0000.0,0002.57,0001.67,0001.39
2023-11-05 12:12:00,SystemResetWarning,0828.1,5.00,000.00,027.4,026.5,000.0,035.7,028.8,11.5,0000.0,0002.57,0001.68,0001.39
2023-11-05 12:13:00,SystemResetWarning,0828.0,5.01,000.00,027.4,026.5,000.0,035.7,028.9,11.6,0000.0,0002.57,0001.68,0001.39
2023-11-05 12:14:00,SystemResetWarning,0828.1,5.01,000.00,027.4,026.5,000.0,035.7,028.9,11.6,0000.0,0002.83,0001.70,0001.38
2023-11-05 12:15:00,SystemResetWarning,0828.1,5.00,000.00,027.4,026.5,000.0,035.7,028.9,11.6,0000.0,0002.74,0001.71,0001.39
2023-11-05 12:16:00,SystemResetWarning,0828.0,4.99,000.00,027.4,026.5,000.0,035.7,028.9,11.6,0000.0,0002.75,0001.73,0001.39
2023-11-05 12:17:00,SystemResetWarning,0828.0,5.00,000.00,027.4,026.5,000.0,035.7,028.9,11.7,0000.0,0002.70,0001.72,0001.40
2023-11-05 12:18:00,SystemResetWarning,0828.1,4.99,000.00,027.4,026.5,000.0,035.7,028.9,11.6,0000.0,0002.59,0001.71,0001.40
2023-11-05 12:19:00,SystemResetWarning,0828.0,5.01,000.00,027.4,026.5,000.0,035.7,028.9,11.6,0000.0,0002.48,0001.70,0001.41
2023-11-05 12:20:00,SystemResetWarning,0827.9,5.01,000.00,027.4,026.5,000.0,035.8,028.9,11.6,0000.0,0002.46,0001.70,0001.42
2023-11-05 12:21:00,SystemResetWarning,0827.9,5.00,000.00,027.4,026.5,000.0,035.8,028.9,11.7,0000.0,0002.48,0001.70,0001.42
2023-11-05 12:22:00,SystemResetWarning,0827.8,4.99,000.00,027.4,026.5,000.0,035.8,028.9,11.6,0000.0,0002.45,0001.70,0001.43
2023-11-05 12:23:00,SystemResetWarning,0827.8,5.00,000.00,027.4,026.4,000.0,035.8,028.9,11.7,0000.0,0002.47,0001.73,0001.45
2023-11-05 12:24:00,SystemResetWarning,0827.8,5.00,000.00,027.4,026.4,000.0,035.8,028.8,11.7,0000.0,0002.51,0001.74,0001.48
2023-11-05 12:25:00,SystemResetWarning,0827.7,4.99,000.00,027.4,026.4,000.0,035.8,028.8,11.7,0000.0,0002.29,0001.74,0001.50
2023-11-05 12:26:00,SystemResetWarning,0827.8,4.99,000.00,027.4,026.4,000.0,035.8,028.8,11.7,0000.0,0002.47,0001.76,0001.52
2023-11-05 12:27:00,SystemResetWarning,0827.7,5.00,000.00,027.4,026.4,000.0,035.8,028.8,11.7,0000.0,0003.00,0001.81,0001.54
2023-11-05 12:28:00,SystemResetWarning,0827.7,5.01,000.00,027.4,026.4,000.0,035.8,028.8,11.7,0000.0,0003.03,0001.83,0001.55
2023-11-05 12:29:00,SystemResetWarning,0827.7,5.01,000.00,027.4,026.3,000.0,035.8,028.7,11.7,0000.0,0003.11,0001.82,0001.55
2023-11-05 12:30:00,SystemResetWarning,0827.7,5.00,000.00,027.4,026.3,000.0,035.8,028.7,11.6,0000.0,0003.16,0001.85,0001.56
2023-11-05 12:31:00,SystemResetWarning,0827.7,5.00,000.00,027.4,026.3,000.0,035.8,028.7,11.6,0000.0,0003.09,0001.86,0001.56
2023-11-05 12:32:00,SystemResetWarning,0827.5,4.99,000.00,027.4,026.3,000.0,035.8,028.6,11.7,0000.0,0003.11,0001.88,0001.56
2023-11-05 12:33:00,SystemResetWarning,0827.5,4.99,000.00,027.3,026.3,000.0,035.8,028.6,11.6,0000.0,0003.16,0001.89,0001.56
2023-11-05 12:34:00,SystemResetWarning,0827.4,5.00,000.00,027.3,026.2,000.0,035.8,028.6,11.6,0000.0,0003.23,0001.90,0001.57
2023-11-05 12:35:00,SystemResetWarning,0827.4,5.00,000.00,027.3,026.2,000.0,035.8,028.6,11.6,0000.0,0003.23,0001.89,0001.57
2023-11-05 12:36:00,SystemResetWarning,0827.4,5.00,000.00,027.3,026.2,000.0,035.8,028.6,11.6,0000.0,0003.75,0001.88,0001.57
2023-11-05 12:37:00,SystemResetWarning,0827.4,5.00,000.00,027.3,026.2,000.0,035.8,028.6,11.6,0000.0,0005.75,0001.91,0001.58
2023-11-05 12:38:00,SystemResetWarning,0827.4,5.00,000.00,027.3,026.2,000.0,035.8,028.6,11.7,0000.0,0005.36,0001.90,0001.60
2023-11-05 12:39:00,SystemResetWarning,0827.4,5.00,000.00,027.3,026.1,000.0,035.7,028.6,11.6,0000.0,0005.44,0001.92,0001.61
2023-11-05 12:40:00,SystemResetWarning,0827.4,5.00,000.00,027.3,026.1,000.0,035.7,028.5,11.7,0000.0,0005.39,0001.93,0001.61
2023-11-05 12:41:00,SystemResetWarning,0827.3,5.00,000.00,027.3,026.1,000.0,035.7,028.5,11.7,0000.0,0005.40,0001.93,0001.62
2023-11-05 12:42:00,SystemResetWarning,0827.4,5.00,000.00,027.3,026.1,000.0,035.7,028.6,11.7,0000.0,0005.56,0001.93,0001.62
2023-11-05 12:43:00,SystemResetWarning,0827.4,5.00,000.00,027.3,026.1,000.0,035.7,028.5,11.7,0000.0,0005.80,0001.95,0001.62
2023-11-05 12:44:00,SystemResetWarning,0827.3,5.00,000.00,027.2,026.1,000.0,035.7,028.6,11.7,0000.0,0005.91,0001.98,0001.64
2023-11-05 12:45:00,SystemResetWarning,0827.3,5.00,000.00,027.2,026.0,000.0,035.7,028.5,11.7,0000.0,0005.84,0001.97,0001.64
2023-11-05 12:46:00,SystemResetWarning,0827.2,5.00,000.00,027.2,026.0,000.0,035.7,028.5,11.7,0000.0,0005.77,0001.96,0001.64
2023-11-05 12:47:00,SystemResetWarning,0827.2,5.00,000.00,027.2,026.0,000.0,035.7,028.5,11.7,0000.0,0005.64,0001.95,0001.64
2023-11-05 12:48:00,SystemResetWarning,0827.3,4.99,000.00,027.2,026.0,000.0,035.7,028.5,11.7,0000.0,0003.71,0002.01,0001.65
2023-11-05 12:49:00,SystemResetWarning,0827.4,5.00,000.00,027.2,026.0,000.0,035.7,028.5,11.7,0000.0,0003.61,0002.03,0001.65
2023-11-05 12:50:00,SystemResetWarning,0827.4,4.99,000.00,027.2,026.0,000.0,035.7,028.5,11.8,0000.0,0004.31,0002.03,0001.65
2023-11-05 12:51:00,SystemResetWarning,0827.4,4.99,000.00,027.2,026.0,000.0,035.7,028.5,11.7,0000.0,0004.76,0002.07,0001.66
2023-11-05 12:52:00,SystemResetWarning,0827.4,5.00,000.00,027.2,026.0,000.0,035.6,028.5,11.7,0000.0,0004.74,0002.06,0001.66
2023-11-05 12:53:00,SystemResetWarning,0827.4,5.00,000.00,027.2,026.0,000.0,035.6,028.5,11.6,0000.0,0004.77,0002.08,0001.68
2023-11-05 12:54:00,SystemResetWarning,0827.5,5.00,000.00,027.2,026.0,000.0,035.6,028.5,11.6,0000.0,0005.20,0002.08,0001.69
2023-11-05 12:55:00,SystemResetWarning,0827.4,5.00,000.00,027.2,025.9,000.0,035.6,028.4,11.8,0000.0,0005.08,0002.06,0001.70
2023-11-05 12:56:00,SystemResetWarning,0827.3,5.01,000.00,027.1,025.9,000.0,035.6,028.4,11.8,0000.0,0005.06,0002.06,0001.72
2023-11-05 12:57:00,SystemResetWarning,0827.2,5.00,000.00,027.1,025.9,000.0,035.6,028.5,11.8,0000.0,0005.25,0002.07,0001.73
2023-11-05 12:58:00,SystemResetWarning,0827.2,5.00,000.00,027.1,025.9,000.0,035.6,028.5,11.7,0000.0,0006.51,0002.11,0001.73
2023-11-05 12:59:00,SystemResetWarning,0827.4,5.00,000.00,027.1,025.9,000.0,035.6,028.4,11.6,0000.0,0006.35,0002.08,0001.74
